IK3ZGB Weather Reports


Display with metric or nautical units.
time (UTC)temp
F
wind
direction
speed
MPH
gust
MPH
rain 1hr
in
rain 24hr
in
rain mn
in
humidity
%
barometer
mb
20260904134042 91 0.0 0.0 0.00 0.00 0.00 54 1014.0
20260904133041 91 0.0 0.0 0.00 0.00 0.00 54 1014.1
20260904132041 91 0.0 0.0 0.00 0.00 0.00 54 1014.4
20260904131042 91 0.0 0.0 0.00 0.00 0.00 54 1014.7
20260904130041 91 0.0 0.0 0.00 0.00 0.00 55 1014.4
20260904125041 91 0.0 0.0 0.00 0.00 0.00 53 1014.6
20260904124043 91 0.0 0.0 0.00 0.00 0.00 54 1014.9
20260904123041 91 0.0 0.0 0.00 0.00 0.00 54 1014.9
20260904122041 92 0.0 0.0 0.00 0.00 0.00 55 1015.0
20260904121041 91 0.0 0.0 0.00 0.00 0.00 54 1014.9
20260904120042 91 0.0 0.0 0.00 0.00 0.00 54 1015.0
20260904115043 91 0.0 0.0 0.00 0.00 0.00 54 1015.4
20260904114041 91 0.0 0.0 0.00 0.00 0.00 56 1015.3
20260904113041 91 0.0 0.0 0.00 0.00 0.00 55 1015.6
20260904112041 92 0.0 0.0 0.00 0.00 0.00 56 1015.5
20260904111041 91 0.0 0.0 0.00 0.00 0.00 55 1015.4
20260904110041 92 0.0 0.0 0.00 0.00 0.00 56 1015.5
20260904105042 91 0.0 0.0 0.00 0.00 0.00 55 1015.7
20260904104041 92 0.0 0.0 0.00 0.00 0.00 55 1015.7
20260904103043 92 0.0 0.0 0.00 0.00 0.00 55 1015.9
20260904102042 92 0.0 0.0 0.00 0.00 0.00 56 1016.0
20260904101042 92 0.0 0.0 0.00 0.00 0.00 55 1016.2
20260904100041 92 0.0 0.0 0.00 0.00 0.00 56 1016.2
20260904095043 92 0.0 0.0 0.00 0.00 0.00 56 1016.2
20260904094041 91 0.0 0.0 0.00 0.00 0.00 55 1016.2
20260904093043 91 0.0 0.0 0.00 0.00 0.00 55 1016.4
20260904092042 92 0.0 0.0 0.00 0.00 0.00 55 1016.7
20260904091041 92 0.0 0.0 0.00 0.00 0.00 55 1016.5
20260904090042 91 0.0 0.0 0.00 0.00 0.00 56 1016.5
20260904085041 90 0.0 0.0 0.00 0.00 0.00 55 1016.4
20260904084041 90 0.0 0.0 0.00 0.00 0.00 55 1016.7
20260904083042 88 0.0 0.0 0.00 0.00 0.00 54 1016.6
20260904082042 89 0.0 0.0 0.00 0.00 0.00 55 1016.5
20260904081041 89 0.0 0.0 0.00 0.00 0.00 55 1016.5
20260904080041 90 0.0 0.0 0.00 0.00 0.00 56 1016.7
20260904075042 89 0.0 0.0 0.00 0.00 0.00 56 1016.7
20260904074042 89 0.0 0.0 0.00 0.00 0.00 57 1016.7
20260904073042 88 0.0 0.0 0.00 0.00 0.00 59 1017.0
20260904072042 88 0.0 0.0 0.00 0.00 0.00 59 1016.6
20260904071042 86 0.0 0.0 0.00 0.00 0.00 59 1017.1
20260904070041 86 0.0 0.0 0.00 0.00 0.00 59 1017.5
20260904065042 85 0.0 0.0 0.00 0.00 0.00 60 1017.5
20260904064042 84 0.0 0.0 0.00 0.00 0.00 60 1017.4
20260904063041 84 0.0 0.0 0.00 0.00 0.00 62 1017.4
20260904062041 83 0.0 0.0 0.00 0.00 0.00 64 1017.5
20260904061041 81 0.0 0.0 0.00 0.00 0.00 66 1017.4
20260904060041 80 0.0 0.0 0.00 0.00 0.00 67 1017.6
20260904055041 81 0.0 0.0 0.00 0.00 0.00 69 1017.6
20260904054040 77 0.0 0.0 0.00 0.00 0.00 71 1017.5
20260904053041 74 0.0 0.0 0.00 0.00 0.00 71 1017.6
20260904052043 74 0.0 0.0 0.00 0.00 0.00 71 1017.4
20260904051042 74 0.0 0.0 0.00 0.00 0.00 71 1017.4
20260904050042 73 0.0 0.0 0.00 0.00 0.00 71 1017.4
20260904045042 73 0.0 0.0 0.00 0.00 0.00 70 1017.4
20260904044040 74 0.0 0.0 0.00 0.00 0.00 70 1017.2
20260904043042 75 0.0 0.0 0.00 0.00 0.00 68 1017.1
20260904042042 75 0.0 0.0 0.00 0.00 0.00 67 1017.0
20260904041041 75 0.0 0.0 0.00 0.00 0.00 67 1017.2
20260904040041 75 0.0 0.0 0.00 0.00 0.00 68 1017.0
20260904035041 75 0.0 0.0 0.00 0.00 0.00 67 1017.1
20260904034040 75 0.0 0.0 0.00 0.00 0.00 67 1017.2
20260904033042 75 0.0 0.0 0.00 0.00 0.00 68 1017.3
20260904032042 75 0.0 0.0 0.00 0.00 0.00 68 1017.2
20260904031041 74 0.0 0.0 0.00 0.00 0.00 70 1017.0
20260904030041 74 0.0 0.0 0.00 0.00 0.00 70 1016.8
20260904025042 74 0.0 0.0 0.00 0.00 0.00 70 1017.1
20260904024041 74 0.0 0.0 0.00 0.00 0.00 70 1016.8
20260904023042 74 0.0 0.0 0.00 0.00 0.00 70 1016.6
20260904022041 74 0.0 0.0 0.00 0.00 0.00 70 1016.8
20260904021041 74 0.0 0.0 0.00 0.00 0.00 70 1016.9
20260904020041 75 0.0 0.0 0.00 0.00 0.00 70 1016.7
20260904015041 75 0.0 0.0 0.00 0.00 0.00 70 1016.8
20260904014041 75 0.0 0.0 0.00 0.00 0.00 69 1017.0
20260904013041 76 0.0 0.0 0.00 0.00 0.00 69 1017.0
20260904012041 75 0.0 0.0 0.00 0.00 0.00 70 1016.8
20260904011041 75 0.0 0.0 0.00 0.00 0.00 70 1016.5
20260904010042 76 0.0 0.0 0.00 0.00 0.00 69 1016.9
20260904005041 76 0.0 0.0 0.00 0.00 0.00 69 1016.9
20260904004042 75 0.0 0.0 0.00 0.00 0.00 70 1017.0
20260904003042 76 0.0 0.0 0.00 0.00 0.00 70 1017.0
20260904002041 75 0.0 0.0 0.00 0.00 0.00 70 1017.0
20260904001042 76 0.0 0.0 0.00 0.00 0.00 70 1016.8
20260904000041 75 0.0 0.0 0.00 0.00 0.00 69 1016.7
20260903235042 76 0.0 0.0 0.00 0.00 0.00 68 1016.6
20260903234041 77 0.0 0.0 0.00 0.00 0.00 68 1016.7
20260903233041 77 0.0 0.0 0.00 0.00 0.00 68 1016.6
20260903232041 77 0.0 0.0 0.00 0.00 0.00 69 1016.6
20260903231041 77 0.0 0.0 0.00 0.00 0.00 69 1016.4
20260903230042 78 0.0 0.0 0.00 0.00 0.00 68 1016.5
20260903225041 78 0.0 0.0 0.00 0.00 0.00 68 1016.5
20260903224041 77 0.0 0.0 0.00 0.00 0.00 68 1016.6
20260903223042 78 0.0 0.0 0.00 0.00 0.00 68 1016.4
20260903222042 77 0.0 0.0 0.00 0.00 0.00 67 1016.4
20260903221041 78 0.0 0.0 0.00 0.00 0.00 66 1016.2
20260903220043 80 0.0 0.0 0.00 0.00 0.00 66 1016.2
20260903215043 79 0.0 0.0 0.00 0.00 0.00 66 1016.2
20260903214041 79 0.0 0.0 0.00 0.00 0.00 66 1016.0
20260903213041 79 0.0 0.0 0.00 0.00 0.00 66 1015.9
20260903212041 79 0.0 0.0 0.00 0.00 0.00 65 1015.7
20260903211041 79 0.0 0.0 0.00 0.00 0.00 65 1015.8
20260903210043 80 0.0 0.0 0.00 0.00 0.00 64 1015.6
20260903205043 80 0.0 0.0 0.00 0.00 0.00 64 1015.7
20260903204041 80 0.0 0.0 0.00 0.00 0.00 64 1015.6
20260903203042 80 0.0 0.0 0.00 0.00 0.00 64 1015.7
20260903202041 80 0.0 0.0 0.00 0.00 0.00 63 1015.5
20260903201041 81 0.0 0.0 0.00 0.00 0.00 62 1015.3
20260903200043 81 0.0 0.0 0.00 0.00 0.00 61 1015.7
20260903195043 81 0.0 0.0 0.00 0.00 0.00 60 1015.7
20260903194041 82 0.0 0.0 0.00 0.00 0.00 60 1015.4
20260903193042 82 0.0 0.0 0.00 0.00 0.00 59 1015.5
20260903192043 82 0.0 0.0 0.00 0.00 0.00 58 1015.3
20260903191043 82 0.0 0.0 0.00 0.00 0.00 58 1015.1
20260903190043 83 0.0 0.0 0.00 0.00 0.00 58 1015.1
20260903185042 83 0.0 0.0 0.00 0.00 0.00 58 1015.2
20260903184042 83 0.0 0.0 0.00 0.00 0.00 58 1014.7
20260903183041 84 0.0 0.0 0.00 0.00 0.00 57 1014.6
20260903182043 84 0.0 0.0 0.00 0.00 0.00 58 1014.4
20260903181043 84 0.0 0.0 0.00 0.00 0.00 57 1014.3
20260903180041 85 0.0 0.0 0.00 0.00 0.00 57 1014.1
20260903175042 85 0.0 0.0 0.00 0.00 0.00 58 1014.0
20260903174043 86 0.0 0.0 0.00 0.00 0.00 57 1013.8
20260903173043 86 0.0 0.0 0.00 0.00 0.00 57 1013.8
20260903172042 86 0.0 0.0 0.00 0.00 0.00 58 1013.8
20260903171041 87 0.0 0.0 0.00 0.00 0.00 57 1013.8
20260903170042 88 0.0 0.0 0.00 0.00 0.00 56 1013.6
20260903165042 88 0.0 0.0 0.00 0.00 0.00 56 1013.7
20260903164042 88 0.0 0.0 0.00 0.00 0.00 56 1013.8
20260903163042 88 0.0 0.0 0.00 0.00 0.00 56 1013.6
20260903162041 88 0.0 0.0 0.00 0.00 0.00 55 1013.7
20260903161042 89 0.0 0.0 0.00 0.00 0.00 55 1013.5
20260903160042 89 0.0 0.0 0.00 0.00 0.00 55 1013.6
20260903155042 89 0.0 0.0 0.00 0.00 0.00 55 1013.2
20260903154042 89 0.0 0.0 0.00 0.00 0.00 55 1013.5
20260903153043 89 0.0 0.0 0.00 0.00 0.00 55 1013.3
20260903152040 89 0.0 0.0 0.00 0.00 0.00 55 1013.4
20260903151042 89 0.0 0.0 0.00 0.00 0.00 55 1013.4
20260903150042 89 0.0 0.0 0.00 0.00 0.00 54 1013.3
20260903145041 90 0.0 0.0 0.00 0.00 0.00 55 1013.4
20260903144041 90 0.0 0.0 0.00 0.00 0.00 54 1013.6
20260903143042 89 0.0 0.0 0.00 0.00 0.00 54 1013.9
20260903142040 90 0.0 0.0 0.00 0.00 0.00 54 1014.1
20260903141042 90 0.0 0.0 0.00 0.00 0.00 54 1013.9
20260903140043 90 0.0 0.0 0.00 0.00 0.00 53 1014.3
20260903135041 89 0.0 0.0 0.00 0.00 0.00 52 1014.3